Ponca City, OK

5:36 PM CST on November 13, 2019 (GMT -0600)
Ponca City Municipal

Weather History for KPNC - July, 2019

Change the Weather History Date:

Tuesday, July 16, 2019

  Actual Average Record
Temperature  
Mean Temperature 82 °F -  
Max Temperature 96 °F 93 °F 110 °F (1954)
Min Temperature 69 °F 69 °F 57 °F (1967)
Cooling Degree Days 17    
Growing Degree Days 32 (Base 50)    
Moisture  
Dew Point 70 °F    
Average Humidity 74    
Maximum Humidity 90    
Minimum Humidity 50    
Precipitation  
Precipitation 0.57 in - - ()
Sea Level Pressure  
Sea Level Pressure 29.89 in    
Wind  
Wind Speed 5 mph (SE)    
Max Wind Speed 26 mph    
Max Gust Speed 45 mph    
Visibility 9 miles    
Events Rain , Thunderstorm    
Averages and records for this station are not official NWS values.
T = Trace of Precipitation, MM = Missing Value Source: NWS Daily Summary

Daily Weather History Graph

Daily Weather History Graph

Search for Another Location

Airport or City:

Astronomy

Jul. 16, 2019 Rise Set
Actual Time 6:21 AM CDT 8:46 PM CDT
Civil Twilight 5:52 AM CDT 9:16 PM CDT
Nautical Twilight 5:15 AM CDT 9:53 PM CDT
Astronomical Twilight 4:34 AM CDT 10:33 PM CDT
Moon 8:53 PM CDT (7/16) 6:01 AM CDT (7/16)
Length of Visible Light 15h 24m
Length of Day
14h 24m
Full, 100% of the Moon is Illuminated
Jul 16
Full
Jul 16
Full
Jul 24
Last Quarter
Jul 31
New
Aug 7
First Quarter

Hourly Weather History & Observations

Time (CDT) Temp. Heat Index Dew Point Humidity Pressure Visibility Wind Dir Wind Speed Gust Speed Precip Events Conditions
12:53 AM 73.9 °F - 68.0 °F 82% 29.88 in 10.0 mi Calm Calm - N/A   Clear
1:53 AM 73.0 °F - 68.0 °F 84% 29.89 in 10.0 mi Calm Calm - N/A   Clear
2:53 AM 73.0 °F - 68.0 °F 84% 29.88 in 10.0 mi Calm Calm - N/A   Clear
3:53 AM 72.0 °F - 68.0 °F 87% 29.86 in 10.0 mi Calm Calm - N/A   Clear
4:53 AM 70.0 °F - 66.9 °F 90% 29.86 in 10.0 mi Calm Calm - N/A   Clear
5:53 AM 69.1 °F - 66.0 °F 90% 29.87 in 10.0 mi Calm Calm - N/A   Clear
6:53 AM 70.0 °F - 66.9 °F 90% 29.88 in 10.0 mi Calm Calm - N/A   Clear
7:53 AM 75.0 °F - 70.0 °F 84% 29.89 in 10.0 mi Calm Calm - N/A   Clear
8:53 AM 80.1 °F 83.2 °F 70.0 °F 71% 29.91 in 10.0 mi Variable 3.5 mph - N/A   Clear
9:53 AM 84.0 °F 87.8 °F 69.1 °F 61% 29.90 in 10.0 mi SE 10.4 mph - N/A   Clear
10:53 AM 86.0 °F 90.7 °F 70.0 °F 59% 29.90 in 10.0 mi SSE 9.2 mph - N/A   Clear
11:53 AM 90.0 °F 97.9 °F 73.0 °F 57% 29.90 in 10.0 mi SSE 8.1 mph - N/A   Clear
1:53 PM 93.9 °F 103.4 °F 73.0 °F 51% 29.87 in 10.0 mi SE 9.2 mph - N/A   Clear
2:53 PM 95.0 °F 105.2 °F 73.9 °F 50% 29.85 in 10.0 mi SE 10.4 mph - N/A   Clear
3:53 PM 91.9 °F 98.4 °F 71.1 °F 50% 29.90 in 10.0 mi North - - N/A   Clear
4:01 PM 81.0 °F 83.0 °F 66.0 °F 60% 29.95 in 10.0 mi NNW 24.2 mph 33.4 mph N/A Thunderstorm Thunderstorm
4:23 PM 73.0 °F - 68.0 °F 84% 29.98 in 1.5 mi WNW 26.5 mph 44.9 mph 0.09 in Rain , Thunderstorm Thunderstorms and Rain
4:31 PM 75.0 °F - 69.1 °F 82% 29.99 in 0.2 mi SSW 15.0 mph 43.7 mph 0.46 in Rain , Thunderstorm Heavy Thunderstorms and Rain
4:39 PM 75.0 °F - 68.0 °F 79% 29.95 in 1.0 mi ENE 13.8 mph 27.6 mph 0.53 in Rain , Thunderstorm Thunderstorms and Rain
4:42 PM 73.9 °F - 68.0 °F 82% 29.94 in 3.0 mi ESE 13.8 mph - 0.53 in Rain , Thunderstorm Thunderstorms and Rain
4:53 PM 77.0 °F - 66.9 °F 71% 29.89 in 10.0 mi East 18.4 mph - 0.55 in Rain , Thunderstorm Light Thunderstorms and Rain
5:25 PM 78.1 °F - 68.0 °F 71% 29.89 in 10.0 mi ESE 11.5 mph - 0.00 in   Scattered Clouds
5:53 PM 78.1 °F - 70.0 °F 76% 29.85 in 10.0 mi SE 8.1 mph - 0.01 in Rain Light Rain
6:53 PM 81.0 °F 85.2 °F 72.0 °F 74% 29.82 in 10.0 mi ESE 5.8 mph - 0.01 in   Partly Cloudy
7:53 PM 81.0 °F 84.9 °F 71.1 °F 72% 29.83 in 10.0 mi SE 5.8 mph - N/A   Clear
8:53 PM 80.1 °F 83.8 °F 72.0 °F 76% 29.82 in 10.0 mi SE 8.1 mph - N/A   Clear
9:53 PM 80.1 °F 84.2 °F 73.0 °F 79% 29.83 in 10.0 mi SE 9.2 mph - N/A   Clear
11:53 PM 82.0 °F 87.9 °F 73.9 °F 76% 29.85 in 10.0 mi SSE 9.2 mph - N/A   Unknown